Terug naar catalogus

BREEZE-M DEB

ActiefHEO
NORAD 43414·DEBRIS·🇷🇺 Russia

Gelanceerd Feb 14, 2014 vanaf Baikonur Cosmodrome

Loading…

Volgende Passages (komende 24 uur)

TLE

VersSource: Space-Track

Epoch: Sep 6, 2026, 09:24 UTC

1 43414U 14007D   26249.39211476 -.00000204  00000-0  00000-0 0  9991
2 43414  14.7348  20.5064 4690445 144.2089 259.0931  1.89406927 82298

Volg BREEZE-M DEB in realtime met AllMySat

Download on the App Store